owner,sensor,date,latitude,longitude,vertical_datum,mass_concentration_of_oxygen_in_sea_water,qcFlag 
DISL,ioos:station:DISL:CATA:1,2017-05-01T00:00:00Z,30.3085,-88.1395,10.54,0.0,1114422 
DISL,ioos:station:DISL:CATA:1,2017-05-01T00:30:00Z,30.3085,-88.1395,10.54,0.0,1114422 
DISL,ioos:station:DISL:CATA:1,2017-05-01T01:00:00Z,30.3085,-88.1395,10.54,0.0,1114422 
DISL,ioos:station:DISL:CATA:1,2017-05-01T01:30:00Z,30.3085,-88.1395,10.54,0.0,1114422 
DISL,ioos:station:DISL:CATA:1,2017-05-01T02:00:00Z,30.3085,-88.1395,10.54,0.0,1114422 
DISL,ioos:station:DISL:CATA:1,2017-05-01T02:30:00Z,30.3085,-88.1395,10.54,0.0,1114422 
DISL,ioos:station:DISL:CATA:1,2017-05-01T03:00:00Z,30.3085,-88.1395,10.54,0.0,1114422 
DISL,ioos:station:DISL:CATA:1,2017-05-01T03:30:00Z,30.3085,-88.1395,10.54,0.0,1114422 
DISL,ioos:station:DISL:CATA:1,2017-05-01T04:00:00Z,30.3085,-88.1395,10.54,0.0,1114422 
DISL,ioos:station:DISL:CATA:1,2017-05-01T04:30:00Z,30.3085,-88.1395,10.54,0.0,1114422 
DISL,ioos:station:DISL:CATA:1,2017-05-01T05:00:00Z,30.3085,-88.1395,10.54,0.0,1114422 
DISL,ioos:station:DISL:CATA:1,2017-05-01T05:30:00Z,30.3085,-88.1395,10.54,0.0,1114422 
DISL,ioos:station:DISL:CATA:1,2017-05-01T06:00:00Z,30.3085,-88.1395,10.54,0.0,1114422 
DISL,ioos:station:DISL:CATA:1,2017-05-01T06:30:00Z,30.3085,-88.1395,10.54,0.0,1114422 
DISL,ioos:station:DISL:CATA:1,2017-05-01T07:00:00Z,30.3085,-88.1395,10.54,0.0,1114422 
DISL,ioos:station:DISL:CATA:1,2017-05-01T07:30:00Z,30.3085,-88.1395,10.54,0.0,1114422 
DISL,ioos:station:DISL:CATA:1,2017-05-01T08:00:00Z,30.3085,-88.1395,10.54,0.0,1114422 
DISL,ioos:station:DISL:CATA:1,2017-05-01T08:30:00Z,30.3085,-88.1395,10.54,0.0,1114422 
DISL,ioos:station:DISL:CATA:1,2017-05-01T09:00:00Z,30.3085,-88.1395,10.54,0.0,1114422 
DISL,ioos:station:DISL:CATA:1,2017-05-01T09:30:00Z,30.3085,-88.1395,10.54,0.0,1114422 
DISL,ioos:station:DISL:CATA:1,2017-05-01T10:00:00Z,30.3085,-88.1395,10.54,0.0,1114422 
DISL,ioos:station:DISL:CATA:1,2017-05-01T10:30:00Z,30.3085,-88.1395,10.54,0.0,1114422 
DISL,ioos:station:DISL:CATA:1,2017-05-01T11:00:00Z,30.3085,-88.1395,10.54,0.0,1114422 
DISL,ioos:station:DISL:CATA:1,2017-05-01T11:30:00Z,30.3085,-88.1395,10.54,0.0,1114422 
DISL,ioos:station:DISL:CATA:1,2017-05-01T12:00:00Z,30.3085,-88.1395,10.54,0.0,1114422 
DISL,ioos:station:DISL:CATA:1,2017-05-01T12:30:00Z,30.3085,-88.1395,10.54,0.0,1114422 
DISL,ioos:station:DISL:CATA:1,2017-05-01T13:00:00Z,30.3085,-88.1395,10.54,0.0,1114422 
DISL,ioos:station:DISL:CATA:1,2017-05-01T13:30:00Z,30.3085,-88.1395,10.54,0.0,1114422 
DISL,ioos:station:DISL:CATA:1,2017-05-01T14:00:00Z,30.3085,-88.1395,10.54,0.0,1114422 
DISL,ioos:station:DISL:CATA:1,2017-05-01T14:30:00Z,30.3085,-88.1395,10.54,0.0,1114422 
DISL,ioos:station:DISL:CATA:1,2017-05-01T15:00:00Z,30.3085,-88.1395,10.54,0.0,1114422 
DISL,ioos:station:DISL:CATA:1,2017-05-01T15:30:00Z,30.3085,-88.1395,10.54,0.0,1114422 
DISL,ioos:station:DISL:CATA:1,2017-05-01T16:00:00Z,30.3085,-88.1395,10.54,0.0,1114422 
DISL,ioos:station:DISL:CATA:1,2017-05-01T16:30:00Z,30.3085,-88.1395,10.54,0.0,1114422 
DISL,ioos:station:DISL:CATA:1,2017-05-01T17:00:00Z,30.3085,-88.1395,2.606,7.48,1111122 
DISL,ioos:station:DISL:CATA:1,2017-05-01T17:30:00Z,30.3085,-88.1395,2.584,7.42,1111122 
DISL,ioos:station:DISL:CATA:1,2017-05-01T18:00:00Z,30.3085,-88.1395,2.61,7.76,1111122 
DISL,ioos:station:DISL:CATA:1,2017-05-01T18:30:00Z,30.3085,-88.1395,2.618,7.87,1111122 
DISL,ioos:station:DISL:CATA:1,2017-05-01T19:00:00Z,30.3085,-88.1395,2.642,7.93,1111122 
DISL,ioos:station:DISL:CATA:1,2017-05-01T19:30:00Z,30.3085,-88.1395,2.671,8.1,1111122 
DISL,ioos:station:DISL:CATA:1,2017-05-01T20:00:00Z,30.3085,-88.1395,2.665,8.03,1111122 
DISL,ioos:station:DISL:CATA:1,2017-05-01T20:30:00Z,30.3085,-88.1395,2.633,8.01,1111122 
DISL,ioos:station:DISL:CATA:1,2017-05-01T21:00:00Z,30.3085,-88.1395,2.613,7.96,1111122 
DISL,ioos:station:DISL:CATA:1,2017-05-01T21:30:00Z,30.3085,-88.1395,2.597,7.61,1111122 
DISL,ioos:station:DISL:CATA:1,2017-05-01T22:00:00Z,30.3085,-88.1395,2.584,7.82,1111122 
DISL,ioos:station:DISL:CATA:1,2017-05-01T22:30:00Z,30.3085,-88.1395,2.558,8.24,1111122 
DISL,ioos:station:DISL:CATA:1,2017-05-01T23:00:00Z,30.3085,-88.1395,2.553,8.51,1111122 
DISL,ioos:station:DISL:CATA:1,2017-05-01T23:30:00Z,30.3085,-88.1395,2.531,8.0,1111122 
DISL,ioos:station:DISL:CATA:1,2017-05-02T00:00:00Z,30.3085,-88.1395,2.5,7.67,1111122 
DISL,ioos:station:DISL:CATA:1,2017-05-02T00:30:00Z,30.3085,-88.1395,2.458,7.88,1111122 
DISL,ioos:station:DISL:CATA:1,2017-05-02T01:00:00Z,30.3085,-88.1395,2.427,7.99,1111122 
DISL,ioos:station:DISL:CATA:1,2017-05-02T01:30:00Z,30.3085,-88.1395,2.409,8.08,1111122 
DISL,ioos:station:DISL:CATA:1,2017-05-02T02:00:00Z,30.3085,-88.1395,2.366,8.55,1111122 
DISL,ioos:station:DISL:CATA:1,2017-05-02T02:30:00Z,30.3085,-88.1395,2.32,8.38,1111122 
DISL,ioos:station:DISL:CATA:1,2017-05-02T03:00:00Z,30.3085,-88.1395,2.289,8.05,1111122 
DISL,ioos:station:DISL:CATA:1,2017-05-02T03:30:00Z,30.3085,-88.1395,2.262,7.67,1111122 
DISL,ioos:station:DISL:CATA:1,2017-05-02T04:00:00Z,30.3085,-88.1395,2.244,7.8,1111122 
DISL,ioos:station:DISL:CATA:1,2017-05-02T04:30:00Z,30.3085,-88.1395,2.213,7.81,1111122 
DISL,ioos:station:DISL:CATA:1,2017-05-02T05:00:00Z,30.3085,-88.1395,2.183,7.65,1111122 
DISL,ioos:station:DISL:CATA:1,2017-05-02T05:30:00Z,30.3085,-88.1395,2.168,7.63,1111122 
DISL,ioos:station:DISL:CATA:1,2017-05-02T06:00:00Z,30.3085,-88.1395,2.154,7.53,1111122 
DISL,ioos:station:DISL:CATA:1,2017-05-02T06:30:00Z,30.3085,-88.1395,2.136,7.61,1111122 
DISL,ioos:station:DISL:CATA:1,2017-05-02T07:00:00Z,30.3085,-88.1395,2.122,7.56,1111122 
DISL,ioos:station:DISL:CATA:1,2017-05-02T07:30:00Z,30.3085,-88.1395,2.128,7.58,1111122 
DISL,ioos:station:DISL:CATA:1,2017-05-02T08:00:00Z,30.3085,-88.1395,2.147,7.63,1111122 
DISL,ioos:station:DISL:CATA:1,2017-05-02T08:30:00Z,30.3085,-88.1395,2.167,7.9,1111122 
DISL,ioos:station:DISL:CATA:1,2017-05-02T09:00:00Z,30.3085,-88.1395,2.186,7.86,1111122 
DISL,ioos:station:DISL:CATA:1,2017-05-02T09:30:00Z,30.3085,-88.1395,2.193,7.68,1111122 
DISL,ioos:station:DISL:CATA:1,2017-05-02T10:00:00Z,30.3085,-88.1395,2.224,6.96,1111122 
DISL,ioos:station:DISL:CATA:1,2017-05-02T10:30:00Z,30.3085,-88.1395,2.245,7.46,1111122 
DISL,ioos:station:DISL:CATA:1,2017-05-02T11:00:00Z,30.3085,-88.1395,2.261,7.62,1111122 
DISL,ioos:station:DISL:CATA:1,2017-05-02T11:30:00Z,30.3085,-88.1395,2.298,7.56,1111122 
DISL,ioos:station:DISL:CATA:1,2017-05-02T12:00:00Z,30.3085,-88.1395,2.302,7.52,1111122 
DISL,ioos:station:DISL:CATA:1,2017-05-02T12:30:00Z,30.3085,-88.1395,2.333,7.41,1111122 
DISL,ioos:station:DISL:CATA:1,2017-05-02T13:00:00Z,30.3085,-88.1395,2.346,7.21,1111122 
DISL,ioos:station:DISL:CATA:1,2017-05-02T13:30:00Z,30.3085,-88.1395,2.378,7.24,1111122 
DISL,ioos:station:DISL:CATA:1,2017-05-02T14:00:00Z,30.3085,-88.1395,2.404,7.31,1111122 
DISL,ioos:station:DISL:CATA:1,2017-05-02T14:30:00Z,30.3085,-88.1395,2.432,7.44,1111122 
DISL,ioos:station:DISL:CATA:1,2017-05-02T15:00:00Z,30.3085,-88.1395,2.467,7.55,1111122 
DISL,ioos:station:DISL:CATA:1,2017-05-02T15:30:00Z,30.3085,-88.1395,2.483,7.67,1111122 
DISL,ioos:station:DISL:CATA:1,2017-05-02T16:00:00Z,30.3085,-88.1395,2.503,7.85,1111122 
DISL,ioos:station:DISL:CATA:1,2017-05-02T16:30:00Z,30.3085,-88.1395,2.527,8.1,1111122 
DISL,ioos:station:DISL:CATA:1,2017-05-02T17:00:00Z,30.3085,-88.1395,2.555,8.12,1111122 
DISL,ioos:station:DISL:CATA:1,2017-05-02T17:30:00Z,30.3085,-88.1395,2.57,8.11,1111122 
DISL,ioos:station:DISL:CATA:1,2017-05-02T18:00:00Z,30.3085,-88.1395,2.585,8.18,1111122 
DISL,ioos:station:DISL:CATA:1,2017-05-02T18:30:00Z,30.3085,-88.1395,2.6,8.28,1111122 
DISL,ioos:station:DISL:CATA:1,2017-05-02T19:00:00Z,30.3085,-88.1395,2.606,8.27,1111122 
DISL,ioos:station:DISL:CATA:1,2017-05-02T19:30:00Z,30.3085,-88.1395,2.606,8.31,1111122 
DISL,ioos:station:DISL:CATA:1,2017-05-02T20:00:00Z,30.3085,-88.1395,2.603,8.24,1111122 
DISL,ioos:station:DISL:CATA:1,2017-05-02T20:30:00Z,30.3085,-88.1395,2.6,8.3,1111122 
DISL,ioos:station:DISL:CATA:1,2017-05-02T21:00:00Z,30.3085,-88.1395,2.588,8.43,1111122 
DISL,ioos:station:DISL:CATA:1,2017-05-02T21:30:00Z,30.3085,-88.1395,2.573,8.45,1111122 
DISL,ioos:station:DISL:CATA:1,2017-05-02T22:00:00Z,30.3085,-88.1395,2.554,8.23,1111122 
DISL,ioos:station:DISL:CATA:1,2017-05-02T22:30:00Z,30.3085,-88.1395,2.545,8.17,1111122 
DISL,ioos:station:DISL:CATA:1,2017-05-02T23:00:00Z,30.3085,-88.1395,2.525,8.34,1111122 
DISL,ioos:station:DISL:CATA:1,2017-05-02T23:30:00Z,30.3085,-88.1395,2.5,8.3,1111122 
DISL,ioos:station:DISL:CATA:1,2017-05-03T00:00:00Z,30.3085,-88.1395,2.476,8.34,1111122 
DISL,ioos:station:DISL:CATA:1,2017-05-03T00:30:00Z,30.3085,-88.1395,2.457,8.28,1111122 
DISL,ioos:station:DISL:CATA:1,2017-05-03T01:00:00Z,30.3085,-88.1395,2.422,8.34,1111122 
DISL,ioos:station:DISL:CATA:1,2017-05-03T01:30:00Z,30.3085,-88.1395,2.395,8.31,1111122 
DISL,ioos:station:DISL:CATA:1,2017-05-03T02:00:00Z,30.3085,-88.1395,2.357,8.14,1111122 
DISL,ioos:station:DISL:CATA:1,2017-05-03T02:30:00Z,30.3085,-88.1395,2.327,8.28,1111122 
DISL,ioos:station:DISL:CATA:1,2017-05-03T03:00:00Z,30.3085,-88.1395,2.29,8.13,1111122 
DISL,ioos:station:DISL:CATA:1,2017-05-03T03:30:00Z,30.3085,-88.1395,2.26,8.22,1111122 
DISL,ioos:station:DISL:CATA:1,2017-05-03T04:00:00Z,30.3085,-88.1395,2.233,7.86,1111122 
DISL,ioos:station:DISL:CATA:1,2017-05-03T04:30:00Z,30.3085,-88.1395,2.207,7.82,1111122 
DISL,ioos:station:DISL:CATA:1,2017-05-03T05:00:00Z,30.3085,-88.1395,2.181,7.64,1111122 
DISL,ioos:station:DISL:CATA:1,2017-05-03T05:30:00Z,30.3085,-88.1395,2.162,7.58,1111122 
DISL,ioos:station:DISL:CATA:1,2017-05-03T06:00:00Z,30.3085,-88.1395,2.14,7.62,1111122 
DISL,ioos:station:DISL:CATA:1,2017-05-03T06:30:00Z,30.3085,-88.1395,2.133,7.67,1111122 
DISL,ioos:station:DISL:CATA:1,2017-05-03T07:00:00Z,30.3085,-88.1395,2.125,7.58,1111122 
DISL,ioos:station:DISL:CATA:1,2017-05-03T07:30:00Z,30.3085,-88.1395,2.124,7.63,1111122 
DISL,ioos:station:DISL:CATA:1,2017-05-03T08:00:00Z,30.3085,-88.1395,2.115,7.65,1111122 
DISL,ioos:station:DISL:CATA:1,2017-05-03T08:30:00Z,30.3085,-88.1395,2.133,7.84,1111122 
DISL,ioos:station:DISL:CATA:1,2017-05-03T09:00:00Z,30.3085,-88.1395,2.117,7.93,1111122 
DISL,ioos:station:DISL:CATA:1,2017-05-03T09:30:00Z,30.3085,-88.1395,2.128,8.09,1111122 
DISL,ioos:station:DISL:CATA:1,2017-05-03T10:00:00Z,30.3085,-88.1395,2.145,8.13,1111122 
DISL,ioos:station:DISL:CATA:1,2017-05-03T10:30:00Z,30.3085,-88.1395,2.154,8.1,1111122 
DISL,ioos:station:DISL:CATA:1,2017-05-03T11:00:00Z,30.3085,-88.1395,2.169,7.96,1111122 
DISL,ioos:station:DISL:CATA:1,2017-05-03T11:30:00Z,30.3085,-88.1395,2.192,6.98,1111122 
DISL,ioos:station:DISL:CATA:1,2017-05-03T12:00:00Z,30.3085,-88.1395,2.211,7.1,1111122 
DISL,ioos:station:DISL:CATA:1,2017-05-03T12:30:00Z,30.3085,-88.1395,2.23,7.39,1111122 
DISL,ioos:station:DISL:CATA:1,2017-05-03T13:00:00Z,30.3085,-88.1395,2.253,7.98,1111122 
DISL,ioos:station:DISL:CATA:1,2017-05-03T13:30:00Z,30.3085,-88.1395,2.28,8.02,1111122 
DISL,ioos:station:DISL:CATA:1,2017-05-03T14:00:00Z,30.3085,-88.1395,2.312,8.07,1111122 
DISL,ioos:station:DISL:CATA:1,2017-05-03T14:30:00Z,30.3085,-88.1395,2.339,7.9,1111122 
DISL,ioos:station:DISL:CATA:1,2017-05-03T15:00:00Z,30.3085,-88.1395,2.357,8.05,1111122 
DISL,ioos:station:DISL:CATA:1,2017-05-03T15:30:00Z,30.3085,-88.1395,2.381,8.09,1111122 
DISL,ioos:station:DISL:CATA:1,2017-05-03T16:00:00Z,30.3085,-88.1395,2.398,8.12,1111122 
DISL,ioos:station:DISL:CATA:1,2017-05-03T16:30:00Z,30.3085,-88.1395,2.414,8.1,1111122 
DISL,ioos:station:DISL:CATA:1,2017-05-03T17:00:00Z,30.3085,-88.1395,2.437,8.18,1111122 
DISL,ioos:station:DISL:CATA:1,2017-05-03T17:30:00Z,30.3085,-88.1395,2.462,8.22,1111122 
DISL,ioos:station:DISL:CATA:1,2017-05-03T18:00:00Z,30.3085,-88.1395,2.487,8.2,1111122 
DISL,ioos:station:DISL:CATA:1,2017-05-03T18:30:00Z,30.3085,-88.1395,2.509,8.26,1111122 
DISL,ioos:station:DISL:CATA:1,2017-05-03T19:00:00Z,30.3085,-88.1395,2.523,8.27,1111122 
DISL,ioos:station:DISL:CATA:1,2017-05-03T19:30:00Z,30.3085,-88.1395,2.547,8.36,1111122 
DISL,ioos:station:DISL:CATA:1,2017-05-03T20:00:00Z,30.3085,-88.1395,2.529,8.27,1111122 
DISL,ioos:station:DISL:CATA:1,2017-05-03T20:30:00Z,30.3085,-88.1395,2.522,7.9,1111122 
DISL,ioos:station:DISL:CATA:1,2017-05-03T21:00:00Z,30.3085,-88.1395,2.412,8.04,1111122 
DISL,ioos:station:DISL:CATA:1,2017-05-03T21:30:00Z,30.3085,-88.1395,2.6,8.23,1111122 
DISL,ioos:station:DISL:CATA:1,2017-05-03T22:00:00Z,30.3085,-88.1395,2.57,8.19,1111122 
DISL,ioos:station:DISL:CATA:1,2017-05-03T22:30:00Z,30.3085,-88.1395,2.664,7.91,1111122 
DISL,ioos:station:DISL:CATA:1,2017-05-03T23:00:00Z,30.3085,-88.1395,2.669,7.95,1111122 
DISL,ioos:station:DISL:CATA:1,2017-05-03T23:30:00Z,30.3085,-88.1395,2.507,7.73,1111122 
DISL,ioos:station:DISL:CATA:1,2017-05-04T00:00:00Z,30.3085,-88.1395,2.451,7.67,1111122 
DISL,ioos:station:DISL:CATA:1,2017-05-04T00:30:00Z,30.3085,-88.1395,2.292,7.97,1111122 
DISL,ioos:station:DISL:CATA:1,2017-05-04T01:00:00Z,30.3085,-88.1395,2.222,7.99,1111122 
DISL,ioos:station:DISL:CATA:1,2017-05-04T01:30:00Z,30.3085,-88.1395,2.199,8.02,1111122 
DISL,ioos:station:DISL:CATA:1,2017-05-04T02:00:00Z,30.3085,-88.1395,2.258,7.91,1111122 
DISL,ioos:station:DISL:CATA:1,2017-05-04T02:30:00Z,30.3085,-88.1395,2.368,7.91,1111122 
DISL,ioos:station:DISL:CATA:1,2017-05-04T03:00:00Z,30.3085,-88.1395,2.481,7.92,1111122 
DISL,ioos:station:DISL:CATA:1,2017-05-04T03:30:00Z,30.3085,-88.1395,2.607,7.5,1111122 
DISL,ioos:station:DISL:CATA:1,2017-05-04T04:00:00Z,30.3085,-88.1395,2.664,7.78,1111122 
DISL,ioos:station:DISL:CATA:1,2017-05-04T04:30:00Z,30.3085,-88.1395,2.578,7.72,1111122 
DISL,ioos:station:DISL:CATA:1,2017-05-04T05:00:00Z,30.3085,-88.1395,2.481,7.61,1111122 
DISL,ioos:station:DISL:CATA:1,2017-05-04T05:30:00Z,30.3085,-88.1395,2.432,7.63,1111122 
DISL,ioos:station:DISL:CATA:1,2017-05-04T06:00:00Z,30.3085,-88.1395,2.399,7.65,1111122 
DISL,ioos:station:DISL:CATA:1,2017-05-04T06:30:00Z,30.3085,-88.1395,2.334,7.66,1111122 
DISL,ioos:station:DISL:CATA:1,2017-05-04T07:00:00Z,30.3085,-88.1395,2.289,7.76,1111122 
DISL,ioos:station:DISL:CATA:1,2017-05-04T07:30:00Z,30.3085,-88.1395,2.201,7.66,1111122 
DISL,ioos:station:DISL:CATA:1,2017-05-04T08:00:00Z,30.3085,-88.1395,2.156,7.74,1111122 
DISL,ioos:station:DISL:CATA:1,2017-05-04T08:30:00Z,30.3085,-88.1395,2.172,7.68,1111122 
DISL,ioos:station:DISL:CATA:1,2017-05-04T09:00:00Z,30.3085,-88.1395,2.165,7.67,1111122 
DISL,ioos:station:DISL:CATA:1,2017-05-04T09:30:00Z,30.3085,-88.1395,2.106,7.71,1111122 
DISL,ioos:station:DISL:CATA:1,2017-05-04T10:00:00Z,30.3085,-88.1395,2.061,7.71,1111122 
DISL,ioos:station:DISL:CATA:1,2017-05-04T10:30:00Z,30.3085,-88.1395,2.018,7.66,1111122 
DISL,ioos:station:DISL:CATA:1,2017-05-04T11:00:00Z,30.3085,-88.1395,2.038,7.65,1111122 
DISL,ioos:station:DISL:CATA:1,2017-05-04T11:30:00Z,30.3085,-88.1395,2.1,7.74,1111122 
DISL,ioos:station:DISL:CATA:1,2017-05-04T12:00:00Z,30.3085,-88.1395,2.166,7.78,1111122 
DISL,ioos:station:DISL:CATA:1,2017-05-04T12:30:00Z,30.3085,-88.1395,2.191,7.83,1111122 
DISL,ioos:station:DISL:CATA:1,2017-05-04T13:00:00Z,30.3085,-88.1395,2.229,7.87,1111122 
DISL,ioos:station:DISL:CATA:1,2017-05-04T13:30:00Z,30.3085,-88.1395,2.458,7.79,1111122 
DISL,ioos:station:DISL:CATA:1,2017-05-04T14:00:00Z,30.3085,-88.1395,2.5,7.71,1111122 
DISL,ioos:station:DISL:CATA:1,2017-05-04T14:30:00Z,30.3085,-88.1395,2.517,7.7,1111122 
DISL,ioos:station:DISL:CATA:1,2017-05-04T15:00:00Z,30.3085,-88.1395,2.598,7.74,1111122 
DISL,ioos:station:DISL:CATA:1,2017-05-04T15:30:00Z,30.3085,-88.1395,2.675,7.73,1111122 
DISL,ioos:station:DISL:CATA:1,2017-05-04T16:00:00Z,30.3085,-88.1395,2.708,7.64,1111122 
DISL,ioos:station:DISL:CATA:1,2017-05-04T16:30:00Z,30.3085,-88.1395,2.698,7.59,1111122 
DISL,ioos:station:DISL:CATA:1,2017-05-04T17:00:00Z,30.3085,-88.1395,2.625,7.51,1111122 
DISL,ioos:station:DISL:CATA:1,2017-05-04T17:30:00Z,30.3085,-88.1395,2.529,7.51,1111122 
DISL,ioos:station:DISL:CATA:1,2017-05-04T18:00:00Z,30.3085,-88.1395,2.496,7.48,1111122 
DISL,ioos:station:DISL:CATA:1,2017-05-04T18:30:00Z,30.3085,-88.1395,2.516,7.61,1111122 
DISL,ioos:station:DISL:CATA:1,2017-05-04T19:00:00Z,30.3085,-88.1395,2.52,7.77,1111122 
DISL,ioos:station:DISL:CATA:1,2017-05-04T19:30:00Z,30.3085,-88.1395,2.559,8.1,1111122 
DISL,ioos:station:DISL:CATA:1,2017-05-04T20:00:00Z,30.3085,-88.1395,2.558,8.21,1111122 
DISL,ioos:station:DISL:CATA:1,2017-05-04T20:30:00Z,30.3085,-88.1395,2.58,7.86,1111122 
DISL,ioos:station:DISL:CATA:1,2017-05-04T21:00:00Z,30.3085,-88.1395,2.528,7.88,1111122 
DISL,ioos:station:DISL:CATA:1,2017-05-04T21:30:00Z,30.3085,-88.1395,2.512,7.83,1111122 
DISL,ioos:station:DISL:CATA:1,2017-05-04T22:00:00Z,30.3085,-88.1395,2.48,7.95,1111122 
DISL,ioos:station:DISL:CATA:1,2017-05-04T22:30:00Z,30.3085,-88.1395,2.443,7.92,1111122 
DISL,ioos:station:DISL:CATA:1,2017-05-04T23:00:00Z,30.3085,-88.1395,2.411,7.84,1111122 
DISL,ioos:station:DISL:CATA:1,2017-05-04T23:30:00Z,30.3085,-88.1395,2.402,8.06,1111122 
DISL,ioos:station:DISL:CATA:1,2017-05-05T00:00:00Z,30.3085,-88.1395,2.412,7.86,1111122 
DISL,ioos:station:DISL:CATA:1,2017-05-05T00:30:00Z,30.3085,-88.1395,2.38,7.94,1111122 
DISL,ioos:station:DISL:CATA:1,2017-05-05T01:00:00Z,30.3085,-88.1395,2.351,8.05,1111122 
DISL,ioos:station:DISL:CATA:1,2017-05-05T01:30:00Z,30.3085,-88.1395,2.341,8.02,1111122 
DISL,ioos:station:DISL:CATA:1,2017-05-05T02:00:00Z,30.3085,-88.1395,2.311,7.91,1111122 
DISL,ioos:station:DISL:CATA:1,2017-05-05T02:30:00Z,30.3085,-88.1395,2.259,7.91,1111122 
DISL,ioos:station:DISL:CATA:1,2017-05-05T03:00:00Z,30.3085,-88.1395,2.243,7.83,1111122 
DISL,ioos:station:DISL:CATA:1,2017-05-05T03:30:00Z,30.3085,-88.1395,2.185,7.84,1111122 
DISL,ioos:station:DISL:CATA:1,2017-05-05T04:00:00Z,30.3085,-88.1395,2.132,7.57,1111122 
DISL,ioos:station:DISL:CATA:1,2017-05-05T04:30:00Z,30.3085,-88.1395,2.151,7.67,1111122 
DISL,ioos:station:DISL:CATA:1,2017-05-05T05:00:00Z,30.3085,-88.1395,2.171,7.57,1111122 
DISL,ioos:station:DISL:CATA:1,2017-05-05T05:30:00Z,30.3085,-88.1395,2.098,7.97,1111122 
DISL,ioos:station:DISL:CATA:1,2017-05-05T06:00:00Z,30.3085,-88.1395,2.016,7.86,1111122 
DISL,ioos:station:DISL:CATA:1,2017-05-05T06:30:00Z,30.3085,-88.1395,1.994,7.88,1111122 
DISL,ioos:station:DISL:CATA:1,2017-05-05T07:00:00Z,30.3085,-88.1395,1.992,7.84,1111122 
DISL,ioos:station:DISL:CATA:1,2017-05-05T07:30:00Z,30.3085,-88.1395,2.01,7.95,1111122 
DISL,ioos:station:DISL:CATA:1,2017-05-05T08:00:00Z,30.3085,-88.1395,2.001,8.1,1111122 
DISL,ioos:station:DISL:CATA:1,2017-05-05T08:30:00Z,30.3085,-88.1395,2.004,7.91,1111122 
DISL,ioos:station:DISL:CATA:1,2017-05-05T09:00:00Z,30.3085,-88.1395,2.011,8.14,1111122 
DISL,ioos:station:DISL:CATA:1,2017-05-05T09:30:00Z,30.3085,-88.1395,2.034,8.14,1111122 
DISL,ioos:station:DISL:CATA:1,2017-05-05T10:00:00Z,30.3085,-88.1395,2.04,8.06,1111122 
DISL,ioos:station:DISL:CATA:1,2017-05-05T10:30:00Z,30.3085,-88.1395,2.057,7.97,1111122 
DISL,ioos:station:DISL:CATA:1,2017-05-05T11:00:00Z,30.3085,-88.1395,2.053,8.01,1111122 
DISL,ioos:station:DISL:CATA:1,2017-05-05T11:30:00Z,30.3085,-88.1395,2.05,8.04,1111122 
DISL,ioos:station:DISL:CATA:1,2017-05-05T12:00:00Z,30.3085,-88.1395,2.077,8.0,1111122 
DISL,ioos:station:DISL:CATA:1,2017-05-05T12:30:00Z,30.3085,-88.1395,2.127,8.08,1111122 
DISL,ioos:station:DISL:CATA:1,2017-05-05T13:00:00Z,30.3085,-88.1395,2.159,8.29,1111122 
DISL,ioos:station:DISL:CATA:1,2017-05-05T13:30:00Z,30.3085,-88.1395,2.172,8.28,1111122 
DISL,ioos:station:DISL:CATA:1,2017-05-05T14:00:00Z,30.3085,-88.1395,2.193,8.28,1111122 
DISL,ioos:station:DISL:CATA:1,2017-05-05T14:30:00Z,30.3085,-88.1395,2.222,8.15,1111122 
DISL,ioos:station:DISL:CATA:1,2017-05-05T15:00:00Z,30.3085,-88.1395,2.255,8.15,1111122 
DISL,ioos:station:DISL:CATA:1,2017-05-05T15:30:00Z,30.3085,-88.1395,2.258,8.16,1111122 
DISL,ioos:station:DISL:CATA:1,2017-05-05T16:00:00Z,30.3085,-88.1395,2.28,8.24,1111122 
DISL,ioos:station:DISL:CATA:1,2017-05-05T16:30:00Z,30.3085,-88.1395,2.279,8.28,1111122 
DISL,ioos:station:DISL:CATA:1,2017-05-05T17:00:00Z,30.3085,-88.1395,2.283,8.34,1111122 
DISL,ioos:station:DISL:CATA:1,2017-05-05T17:30:00Z,30.3085,-88.1395,2.273,8.41,1111122 
DISL,ioos:station:DISL:CATA:1,2017-05-05T18:00:00Z,30.3085,-88.1395,2.247,8.42,1111122 
DISL,ioos:station:DISL:CATA:1,2017-05-05T18:30:00Z,30.3085,-88.1395,2.223,8.44,1111122 
DISL,ioos:station:DISL:CATA:1,2017-05-05T19:00:00Z,30.3085,-88.1395,2.213,8.38,1111122 
DISL,ioos:station:DISL:CATA:1,2017-05-05T19:30:00Z,30.3085,-88.1395,2.194,8.41,1111122 
DISL,ioos:station:DISL:CATA:1,2017-05-05T20:00:00Z,30.3085,-88.1395,2.154,8.23,1111122 
DISL,ioos:station:DISL:CATA:1,2017-05-05T20:30:00Z,30.3085,-88.1395,2.133,8.2,1111122 
DISL,ioos:station:DISL:CATA:1,2017-05-05T21:00:00Z,30.3085,-88.1395,2.136,8.29,1111122 
DISL,ioos:station:DISL:CATA:1,2017-05-05T21:30:00Z,30.3085,-88.1395,2.176,8.35,1111122 
DISL,ioos:station:DISL:CATA:1,2017-05-05T22:00:00Z,30.3085,-88.1395,2.162,8.12,1111122 
DISL,ioos:station:DISL:CATA:1,2017-05-05T22:30:00Z,30.3085,-88.1395,2.157,8.62,1111122 
DISL,ioos:station:DISL:CATA:1,2017-05-05T23:00:00Z,30.3085,-88.1395,2.155,8.4,1111122 
DISL,ioos:station:DISL:CATA:1,2017-05-05T23:30:00Z,30.3085,-88.1395,2.13,8.43,1111122 
DISL,ioos:station:DISL:CATA:1,2017-05-06T00:00:00Z,30.3085,-88.1395,2.13,8.41,1111122 
DISL,ioos:station:DISL:CATA:1,2017-05-06T00:30:00Z,30.3085,-88.1395,2.14,8.38,1111122 
DISL,ioos:station:DISL:CATA:1,2017-05-06T01:00:00Z,30.3085,-88.1395,2.133,8.47,1111122 
DISL,ioos:station:DISL:CATA:1,2017-05-06T01:30:00Z,30.3085,-88.1395,2.109,8.32,1111122 
DISL,ioos:station:DISL:CATA:1,2017-05-06T02:00:00Z,30.3085,-88.1395,2.098,8.27,1111122 
DISL,ioos:station:DISL:CATA:1,2017-05-06T02:30:00Z,30.3085,-88.1395,2.088,8.15,1111122 
DISL,ioos:station:DISL:CATA:1,2017-05-06T03:00:00Z,30.3085,-88.1395,2.077,8.18,1111122 
DISL,ioos:station:DISL:CATA:1,2017-05-06T03:30:00Z,30.3085,-88.1395,2.061,8.11,1111122 
DISL,ioos:station:DISL:CATA:1,2017-05-06T04:00:00Z,30.3085,-88.1395,2.061,8.09,1111122 
DISL,ioos:station:DISL:CATA:1,2017-05-06T04:30:00Z,30.3085,-88.1395,2.06,7.87,1111122 
DISL,ioos:station:DISL:CATA:1,2017-05-06T05:00:00Z,30.3085,-88.1395,2.034,8.0,1111122 
DISL,ioos:station:DISL:CATA:1,2017-05-06T05:30:00Z,30.3085,-88.1395,2.034,8.15,1111122 
DISL,ioos:station:DISL:CATA:1,2017-05-06T06:00:00Z,30.3085,-88.1395,2.032,8.16,1111122 
DISL,ioos:station:DISL:CATA:1,2017-05-06T06:30:00Z,30.3085,-88.1395,2.018,8.23,1111122 
DISL,ioos:station:DISL:CATA:1,2017-05-06T07:00:00Z,30.3085,-88.1395,2.013,8.36,1111122 
DISL,ioos:station:DISL:CATA:1,2017-05-06T07:30:00Z,30.3085,-88.1395,2.015,8.3,1111122 
DISL,ioos:station:DISL:CATA:1,2017-05-06T08:00:00Z,30.3085,-88.1395,2.037,8.05,1111122 
DISL,ioos:station:DISL:CATA:1,2017-05-06T08:30:00Z,30.3085,-88.1395,2.058,8.24,1111122 
DISL,ioos:station:DISL:CATA:1,2017-05-06T09:00:00Z,30.3085,-88.1395,2.074,8.3,1111122 
DISL,ioos:station:DISL:CATA:1,2017-05-06T09:30:00Z,30.3085,-88.1395,2.076,8.2,1111122 
DISL,ioos:station:DISL:CATA:1,2017-05-06T10:00:00Z,30.3085,-88.1395,2.09,8.22,1111122 
DISL,ioos:station:DISL:CATA:1,2017-05-06T10:30:00Z,30.3085,-88.1395,2.112,7.91,1111122 
DISL,ioos:station:DISL:CATA:1,2017-05-06T11:00:00Z,30.3085,-88.1395,2.113,7.97,1111122 
DISL,ioos:station:DISL:CATA:1,2017-05-06T11:30:00Z,30.3085,-88.1395,2.114,7.95,1111122 
DISL,ioos:station:DISL:CATA:1,2017-05-06T12:00:00Z,30.3085,-88.1395,2.108,8.0,1111122 
DISL,ioos:station:DISL:CATA:1,2017-05-06T12:30:00Z,30.3085,-88.1395,2.116,8.02,1111122 
DISL,ioos:station:DISL:CATA:1,2017-05-06T13:00:00Z,30.3085,-88.1395,2.121,8.05,1111122 
DISL,ioos:station:DISL:CATA:1,2017-05-06T13:30:00Z,30.3085,-88.1395,2.135,8.18,1111122 
DISL,ioos:station:DISL:CATA:1,2017-05-06T14:00:00Z,30.3085,-88.1395,2.145,8.28,1111122 
DISL,ioos:station:DISL:CATA:1,2017-05-06T14:30:00Z,30.3085,-88.1395,2.163,8.33,1111122 
DISL,ioos:station:DISL:CATA:1,2017-05-06T15:00:00Z,30.3085,-88.1395,2.184,8.19,1111122 
DISL,ioos:station:DISL:CATA:1,2017-05-06T15:30:00Z,30.3085,-88.1395,2.197,8.48,1111122 